TimeCDT,TemperatureF,Dew PointF,Humidity,Sea Level PressureIn,VisibilityMPH,Wind Direction,Wind SpeedMPH,Gust SpeedMPH,PrecipitationIn,Events,Conditions,WindDirDegrees,DateUTC
12:15 AM,41.5,41.2,99,29.84,4.0,NNE,9.2,-,0.05,Rain-Thunderstorm,Thunderstorms and Rain,30,2013-04-11 05:15:00
12:35 AM,41.2,41.0,99,29.81,1.2,NE,11.5,18.4,0.22,Thunderstorm,Thunderstorm,40,2013-04-11 05:35:00
12:55 AM,41.2,41.0,99,29.81,1.2,NE,10.4,20.7,0.43,,Overcast,40,2013-04-11 05:55:00
1:15 AM,41.4,41.0,99,29.84,2.5,NE,6.9,-,0.09,,Unknown,50,2013-04-11 06:15:00
1:35 AM,41.5,41.2,99,29.82,2.5,ENE,12.7,-,0.17,,Overcast,70,2013-04-11 06:35:00
1:55 AM,41.5,41.2,99,29.80,5.0,ENE,11.5,-,0.20,Rain,Rain,70,2013-04-11 06:55:00
2:15 AM,41.5,41.2,99,29.82,5.0,ENE,9.2,-,0.03,Rain,Rain,70,2013-04-11 07:15:00
2:35 AM,41.5,41.2,99,29.79,7.0,NE,8.1,-,0.05,Rain,Rain,40,2013-04-11 07:35:00
2:55 AM,41.5,41.2,99,29.82,10.0,NE,5.8,-,0.06,Rain,Light Rain,50,2013-04-11 07:55:00
3:15 AM,41.5,41.2,99,29.77,10.0,East,17.3,-,N/A,Rain,Rain,90,2013-04-11 08:15:00
3:35 AM,41.4,41.0,99,29.75,10.0,ESE,16.1,23.0,N/A,Rain,Light Rain,110,2013-04-11 08:35:00
3:55 AM,41.9,41.4,98,29.74,10.0,East,13.8,-,N/A,,Overcast,100,2013-04-11 08:55:00
4:15 AM,42.1,41.5,98,29.74,10.0,East,11.5,-,N/A,,Overcast,90,2013-04-11 09:15:00
4:35 AM,42.3,41.4,97,29.74,10.0,East,13.8,20.7,N/A,,Overcast,100,2013-04-11 09:35:00
4:55 AM,42.4,41.0,95,29.74,10.0,ESE,13.8,-,N/A,,Overcast,110,2013-04-11 09:55:00
5:15 AM,42.4,41.0,95,29.72,10.0,East,15.0,19.6,N/A,,Overcast,100,2013-04-11 10:15:00
5:35 AM,42.4,41.0,95,29.72,10.0,East,13.8,19.6,N/A,,Overcast,90,2013-04-11 10:35:00
5:55 AM,42.6,41.0,94,29.72,10.0,East,13.8,-,N/A,,Overcast,100,2013-04-11 10:55:00
6:15 AM,42.8,41.4,95,29.74,10.0,ESE,12.7,18.4,N/A,,Overcast,110,2013-04-11 11:15:00
6:35 AM,42.8,41.9,97,29.73,10.0,East,16.1,-,N/A,,Light Drizzle,100,2013-04-11 11:35:00
6:55 AM,42.8,41.5,95,29.73,10.0,East,15.0,18.4,N/A,,Overcast,100,2013-04-11 11:55:00
7:15 AM,42.8,41.9,97,29.71,10.0,East,16.1,-,N/A,,Overcast,100,2013-04-11 12:15:00
7:35 AM,43.0,42.1,97,29.70,7.0,East,15.0,20.7,N/A,,Overcast,100,2013-04-11 12:35:00
7:55 AM,43.0,42.3,97,29.70,7.0,East,15.0,19.6,N/A,,Overcast,100,2013-04-11 12:55:00
8:15 AM,43.0,42.3,97,29.70,5.0,East,15.0,21.9,N/A,,Overcast,100,2013-04-11 13:15:00
8:35 AM,43.0,42.4,98,29.70,5.0,East,17.3,-,N/A,,Overcast,100,2013-04-11 13:35:00
8:55 AM,43.2,42.8,99,29.69,4.0,East,17.3,-,N/A,,Drizzle,100,2013-04-11 13:55:00
9:15 AM,43.2,42.8,99,29.69,5.0,East,17.3,23.0,N/A,,Overcast,100,2013-04-11 14:15:00
9:35 AM,43.3,43.0,99,29.69,5.0,East,17.3,23.0,N/A,Rain,Rain,100,2013-04-11 14:35:00
10:15 AM,43.5,43.2,99,29.68,4.0,East,16.1,25.3,0.02,Rain,Rain,100,2013-04-11 15:15:00
10:35 AM,43.7,43.2,98,29.68,3.0,East,18.4,21.9,0.03,Rain,Rain,100,2013-04-11 15:35:00
10:55 AM,43.7,43.2,98,29.67,4.0,East,13.8,20.7,0.03,Rain,Light Rain,100,2013-04-11 15:55:00
11:15 AM,43.9,43.5,99,29.68,3.0,East,17.3,-,N/A,,Overcast,100,2013-04-11 16:15:00
11:35 AM,44.2,43.9,99,29.68,3.0,ESE,16.1,-,N/A,,Drizzle,110,2013-04-11 16:35:00
11:55 AM,44.2,44.1,99,29.67,2.5,East,12.7,-,N/A,Rain,Light Rain,100,2013-04-11 16:55:00
12:15 PM,44.1,43.9,99,29.66,2.5,ESE,13.8,20.7,0.01,Rain,Light Rain,110,2013-04-11 17:15:00
12:35 PM,44.1,43.9,99,29.64,2.0,East,19.6,24.2,0.01,Rain,Light Rain,100,2013-04-11 17:35:00
12:55 PM,43.9,43.7,99,29.64,2.5,East,12.7,-,0.01,Rain,Light Rain,100,2013-04-11 17:55:00
1:15 PM,44.1,43.9,99,29.64,5.0,East,12.7,21.9,N/A,,Overcast,100,2013-04-11 18:15:00
1:35 PM,44.2,44.1,99,29.64,7.0,East,17.3,21.9,N/A,,Overcast,100,2013-04-11 18:35:00
1:55 PM,44.6,44.2,99,29.64,5.0,ESE,15.0,18.4,N/A,,Overcast,110,2013-04-11 18:55:00
2:15 PM,44.6,44.2,99,29.63,5.0,East,11.5,-,N/A,,Light Drizzle,100,2013-04-11 19:15:00
2:35 PM,44.8,44.6,99,29.62,5.0,ESE,11.5,-,N/A,,Overcast,110,2013-04-11 19:35:00
2:55 PM,44.6,44.6,100,29.62,4.0,ESE,10.4,-,N/A,,Drizzle,110,2013-04-11 19:55:00
3:15 PM,45.0,44.8,99,29.62,4.0,ESE,9.2,-,N/A,,Drizzle,110,2013-04-11 20:15:00
3:35 PM,44.8,44.6,99,29.62,1.8,ESE,11.5,-,0.14,Rain,Light Rain,110,2013-04-11 20:35:00
3:55 PM,45.1,45.0,99,29.61,4.0,ESE,11.5,-,0.18,Rain,Rain,110,2013-04-11 20:55:00
4:15 PM,45.1,45.0,99,29.62,5.0,ESE,6.9,-,N/A,,Drizzle,120,2013-04-11 21:15:00
4:35 PM,45.1,45.0,99,29.62,5.0,SE,4.6,-,N/A,,Drizzle,140,2013-04-11 21:35:00
4:55 PM,45.1,45.0,99,29.62,3.0,ESE,9.2,-,N/A,,Drizzle,120,2013-04-11 21:55:00
5:15 PM,45.0,44.8,99,29.61,4.0,ESE,10.4,-,N/A,,Drizzle,110,2013-04-11 22:15:00
5:35 PM,44.8,44.6,99,29.60,7.0,ESE,11.5,-,N/A,,Light Drizzle,110,2013-04-11 22:35:00
5:55 PM,44.6,44.6,100,29.62,5.0,ESE,8.1,-,N/A,,Drizzle,120,2013-04-11 22:55:00
6:15 PM,44.6,44.6,100,29.61,4.0,ESE,3.5,-,0.01,,Heavy Drizzle,120,2013-04-11 23:15:00
6:35 PM,44.6,44.6,100,29.61,4.0,ESE,8.1,-,0.02,Rain,Rain,110,2013-04-11 23:35:00
6:55 PM,44.6,44.2,99,29.60,7.0,ESE,6.9,-,0.03,,Drizzle,110,2013-04-11 23:55:00
7:15 PM,44.2,44.1,99,29.61,7.0,ESE,6.9,-,N/A,,Drizzle,110,2013-04-12 00:15:00
7:35 PM,44.1,43.9,99,29.60,5.0,East,6.9,-,0.01,Rain,Rain,100,2013-04-12 00:35:00
7:55 PM,43.7,43.5,99,29.59,5.0,East,8.1,-,0.01,Rain,Rain,100,2013-04-12 00:55:00
8:15 PM,43.3,43.2,99,29.59,5.0,East,6.9,-,N/A,,Light Drizzle,90,2013-04-12 01:15:00
8:35 PM,43.2,43.0,99,29.60,5.0,East,6.9,-,N/A,Rain,Rain,100,2013-04-12 01:35:00
8:55 PM,42.8,42.8,100,29.59,3.0,East,5.8,-,N/A,,Light Drizzle,90,2013-04-12 01:55:00
9:15 PM,42.8,42.4,99,29.58,2.5,East,6.9,-,N/A,,Light Drizzle,100,2013-04-12 02:15:00
9:35 PM,42.8,42.4,99,29.58,2.0,ESE,9.2,-,0.01,,Light Drizzle,110,2013-04-12 02:35:00
9:55 PM,42.3,42.1,99,29.59,3.0,ESE,8.1,-,0.01,,Drizzle,120,2013-04-12 02:55:00
10:15 PM,41.9,41.9,100,29.59,4.0,ESE,5.8,-,N/A,,Drizzle,110,2013-04-12 03:15:00
10:35 PM,41.7,41.4,99,29.60,4.0,ESE,6.9,-,0.01,,Drizzle,110,2013-04-12 03:35:00
10:55 PM,41.4,41.2,99,29.60,7.0,ESE,6.9,-,0.01,Rain,Light Rain,120,2013-04-12 03:55:00
11:15 PM,41.2,41.0,99,29.59,2.0,ESE,4.6,-,N/A,,Light Drizzle,110,2013-04-12 04:15:00
11:35 PM,41.2,41.0,99,29.59,1.2,ESE,4.6,-,0.01,,Drizzle,110,2013-04-12 04:35:00
11:55 PM,41.2,41.0,99,29.58,1.2,Calm,Calm,-,0.01,,Drizzle,0,2013-04-12 04:55:00